Flag for Canada Weather past 2 weeks in Sault Ste. Marie, Ontario, Canada

Now
21 °F

Snow flurries. Overcast.


Feels Like: 15 °F
Forecast: 1 / 19 °F
Wind: 5 mph from West

Location: Sault Ste Marie

Current Time: Mar 1, 2015 at 10:57:46 PM

Latest Report: Mar 1, 2015 at 10:00 PM


Visibility: 2 mi

Pressure: 30.09 "Hg

Humidity: 93%

Dew point: 19 °F

Location of Sault Ste. MarieLocation

Historic Weather in Sault Ste. Marie — Graph

°F

Sault Ste. Marie temperature yesterday

Maximum temperature yesterday: 23 °F (at 2:00 PM)
Minimum temperature yesterday: -18 °F (at 7:00 AM)
Average temperature yesterday: 2 °F

Past Weeks' High & Low Weather Summary

 TemperatureHumidityPressure
High25 °F (Mar 1, 1:00 PM)92% (Feb 21, 7:00 AM)30.69 "Hg (Feb 21, 7:00 AM)
Low-31 °F (Feb 20, 4:00 AM)37% (Feb 15, 5:00 PM)29.41 "Hg (Feb 24, 1:00 PM)
Average-2 °F72%30.20 "Hg
* Reported Feb 14 9:00 PM — Mar 1 9:53 PM, Sault Ste. Marie, Weather by CustomWeather, © 2015

Note: Actual official high and low records may vary slightly from our data, if they occured in-between our weather recording intervals... More about our weather records

Advertising

Sault Ste. Marie weather history for previous 24 hours

 ConditionsComfort  
Time TempWeatherWind HumidityBarometerVisibility
9:53 PM
Sun, Mar 1
21 °FSnow flurries. Mostly cloudy.6 mph86%30.09 "Hg2 mi
9:00 PM21 °FSnow flurries. Overcast.6 mph86%30.09 "Hg2 mi
8:00 PM21 °FSnow flurries. Overcast.6 mph80%30.11 "Hg8 mi
7:00 PM21 °FOvercast.7 mph74%30.11 "Hg15 mi
6:00 PM23 °FCloudy.12 mph68%30.11 "Hg15 mi
5:00 PM23 °FCloudy.9 mph68%30.13 "Hg15 mi
4:00 PM25 °FBroken clouds.8 mph59%30.14 "Hg15 mi
3:00 PM25 °FPartly sunny.13 mph59%30.16 "Hg15 mi
2:00 PM25 °FOvercast.12 mph54%30.18 "Hg15 mi
1:00 PM25 °FPartly sunny.9 mph54%30.22 "Hg15 mi
12:00 PM21 °FPartly sunny.10 mph58%30.24 "Hg15 mi
11:00 AM19 °FBroken clouds.7 mph58%30.26 "Hg15 mi
10:00 AM16 °FPartly sunny.6 mph67%30.28 "Hg15 mi
9:00 AM9 °FPartly sunny.5 mph85%30.31 "Hg15 mi
8:00 AM7 °FPartly sunny.2 mph85%30.32 "Hg15 mi
7:00 AM5 °FOvercast.5 mph92%30.34 "Hg15 mi
6:00 AM5 °FOvercast.3 mph85%30.35 "Hg15 mi
5:00 AM5 °FOvercast.6 mph85%30.36 "Hg15 mi
4:00 AM3 °FPassing clouds.5 mph85%30.39 "Hg15 mi
3:00 AM3 °FLight snow. Passing clouds.3 mph85%30.42 "Hg15 mi
2:00 AM3 °FPassing clouds.3 mph85%30.45 "Hg15 mi
1:00 AM-2 °FPassing clouds.3 mph92%30.47 "Hg15 mi
12:00 AM-2 °FPassing clouds.3 mph84%30.49 "Hg15 mi
11:00 PM
Sat, Feb 28
-2 °FPassing clouds.3 mph84%30.51 "Hg15 mi
10:00 PM7 °FPassing clouds.3 mph85%30.51 "Hg15 mi
Weather by CustomWeather, © 2015

See weather overviewHow to use our weather pages